Liberal, KS

2:15 PM CST on January 21, 2017 (GMT -0600)
Liberal

Weather History for KLBL - October, 2011

Change the Weather History Date:

Tuesday, October 18, 2011

  Actual Average Record
Temperature  
Mean Temperature 48 °F -  
Max Temperature 60 °F 70 °F 96 °F (1991)
Min Temperature 37 °F 42 °F 28 °F (1948)
Degree Days  
Heating Degree Days 16    
Moisture  
Dew Point 30 °F    
Average Humidity 53    
Maximum Humidity 81    
Minimum Humidity 25    
Precipitation  
Precipitation 0.00 in - - ()
Sea Level Pressure  
Sea Level Pressure 30.24 in    
Wind  
Wind Speed 17 mph (NNW)    
Max Wind Speed 34 mph    
Max Gust Speed 46 mph    
Visibility 10 miles    
Events      
Averages and records for this station are not official NWS values.
T = Trace of Precipitation, MM = Missing Value Source: NWS Daily Summary

Daily Weather History Graph

Daily Weather History Graph

Search for Another Location

Airport or City:

Trip Planner

Search our weather history database for the weather conditions in past years. The results will help you decide how hot, cold, wet, or windy it might be!

Date:

Astronomy

Oct. 18, 2011 Rise Set
Actual Time 7:54 AM CDT 7:03 PM CDT
Civil Twilight 7:27 AM CDT 7:29 PM CDT
Nautical Twilight 6:57 AM CDT 7:59 PM CDT
Astronomical Twilight 6:27 AM CDT 8:29 PM CDT
Moon 11:51 PM CDT (10/18) 1:41 PM CDT (10/18)
Length of Visible Light 12h 01m
Length of Day
11h 09m
Waning Gibbous, 64% of the Moon is Illuminated
Oct 18
Waning Gibbous
Oct 19
Last Quarter
Oct 26
New
Nov 2
First Quarter
Nov 10
Full

Hourly Weather History & Observations

Time (CDT) Temp. Windchill Dew Point Humidity Pressure Visibility Wind Dir Wind Speed Gust Speed Precip Events Conditions
12:15 AM 44.6 °F 38.4 °F 37.4 °F 76% 30.20 in 10.0 mi North 12.7 mph - N/A   Mostly Cloudy
12:35 AM 44.6 °F 38.1 °F 37.4 °F 76% 30.19 in 10.0 mi North 13.8 mph - N/A   Mostly Cloudy
1:15 AM 46.4 °F 39.0 °F 39.2 °F 76% 30.21 in 10.0 mi North 19.6 mph - N/A   Overcast
1:35 AM 46.4 °F 40.1 °F 37.4 °F 71% 30.21 in 10.0 mi North 15.0 mph 24.2 mph N/A   Overcast
1:55 AM 46.4 °F 39.8 °F 37.4 °F 71% 30.22 in 10.0 mi NNW 16.1 mph - N/A   Overcast
2:15 AM 44.6 °F 39.2 °F 37.4 °F 76% 30.22 in 10.0 mi NNW 10.4 mph - N/A   Overcast
2:35 AM 44.6 °F 40.2 °F 37.4 °F 76% 30.23 in 10.0 mi NW 8.1 mph - N/A   Overcast
2:55 AM 46.4 °F 40.7 °F 37.4 °F 71% 30.22 in 10.0 mi NNW 12.7 mph - N/A   Overcast
3:15 AM 44.6 °F 38.4 °F 37.4 °F 76% 30.22 in 10.0 mi NW 12.7 mph 21.9 mph N/A   Overcast
3:35 AM 42.8 °F 36.6 °F 35.6 °F 76% 30.22 in 10.0 mi WNW 11.5 mph - N/A   Partly Cloudy
3:55 AM 41.0 °F 34.3 °F 33.8 °F 76% 30.21 in 10.0 mi WNW 11.5 mph - N/A   Clear
4:15 AM 39.2 °F 31.6 °F 33.8 °F 81% 30.21 in 10.0 mi WNW 12.7 mph - N/A   Clear
4:35 AM 39.2 °F 32.0 °F 33.8 °F 81% 30.21 in 10.0 mi WNW 11.5 mph - N/A   Clear
4:55 AM 39.2 °F 32.0 °F 33.8 °F 81% 30.21 in 10.0 mi WNW 11.5 mph - N/A   Clear
5:15 AM 39.2 °F 31.2 °F 33.8 °F 81% 30.21 in 10.0 mi WNW 13.8 mph - N/A   Clear
5:35 AM 39.2 °F 31.6 °F 32.0 °F 75% 30.21 in 10.0 mi WNW 12.7 mph - N/A   Clear
5:55 AM 37.4 °F 28.5 °F 32.0 °F 81% 30.22 in 10.0 mi WNW 15.0 mph - N/A   Clear
6:15 AM 37.4 °F 29.3 °F 32.0 °F 81% 30.22 in 10.0 mi WNW 12.7 mph - N/A   Clear
6:35 AM 37.4 °F 29.8 °F 30.2 °F 75% 30.23 in 10.0 mi WNW 11.5 mph - N/A   Clear
6:55 AM 37.4 °F 29.8 °F 30.2 °F 75% 30.23 in 10.0 mi WNW 11.5 mph - N/A   Clear
7:15 AM 37.4 °F 28.5 °F 32.0 °F 81% 30.23 in 10.0 mi WNW 15.0 mph - N/A   Clear
7:35 AM 37.4 °F 28.5 °F 32.0 °F 81% 30.23 in 10.0 mi WNW 15.0 mph - N/A   Clear
7:55 AM 37.4 °F 28.9 °F 32.0 °F 81% 30.23 in 10.0 mi NW 13.8 mph - N/A   Clear
8:15 AM 37.4 °F 28.9 °F 32.0 °F 81% 30.24 in 10.0 mi WNW 13.8 mph - N/A   Clear
8:35 AM 41.0 °F 32.8 °F 33.8 °F 76% 30.25 in 10.0 mi NW 16.1 mph 21.9 mph N/A   Clear
8:55 AM 42.8 °F 34.5 °F 33.8 °F 70% 30.26 in 10.0 mi NW 18.4 mph - N/A   Clear
9:15 AM 42.8 °F 35.1 °F 33.8 °F 70% 30.27 in 10.0 mi NW 16.1 mph - N/A   Clear
9:35 AM 44.6 °F 36.6 °F 35.6 °F 71% 30.28 in 10.0 mi NW 19.6 mph 23.0 mph N/A   Clear
9:55 AM 46.4 °F 38.7 °F 35.6 °F 66% 30.29 in 10.0 mi NW 20.7 mph 24.2 mph N/A   Clear
10:15 AM 50.0 °F - 35.6 °F 58% 30.30 in 10.0 mi NW 21.9 mph - N/A   Clear
10:35 AM 51.8 °F - 35.6 °F 54% 30.30 in 10.0 mi NNW 20.7 mph 27.6 mph N/A   Clear
10:55 AM 53.6 °F - 33.8 °F 47% 30.30 in 10.0 mi NNW 23.0 mph 28.8 mph N/A   Clear
11:15 AM 53.6 °F - 33.8 °F 47% 30.29 in 10.0 mi NNW 23.0 mph 29.9 mph N/A   Clear
11:35 AM 55.4 °F - 32.0 °F 41% 30.29 in 10.0 mi NNW 24.2 mph 31.1 mph N/A   Clear
11:55 AM 55.4 °F - 30.2 °F 38% 30.29 in 10.0 mi NNW 24.2 mph 33.4 mph N/A   Clear
12:15 PM 55.4 °F - 30.2 °F 38% 30.29 in 10.0 mi NNW 29.9 mph 36.8 mph N/A   Clear
12:35 PM 57.2 °F - 28.4 °F 33% 30.28 in 10.0 mi NNW 29.9 mph 39.1 mph N/A   Clear
12:55 PM 57.2 °F - 26.6 °F 31% 30.28 in 10.0 mi NNW 24.2 mph 40.3 mph N/A   Clear
1:15 PM 57.2 °F - 28.4 °F 33% 30.27 in 10.0 mi North 33.4 mph 43.7 mph N/A   Clear
1:35 PM 57.2 °F - 26.6 °F 31% 30.26 in 10.0 mi NNW 28.8 mph 41.4 mph N/A   Clear
1:55 PM 59.0 °F - 26.6 °F 29% 30.25 in 10.0 mi NNW 28.8 mph 39.1 mph N/A   Clear
2:15 PM 59.0 °F - 26.6 °F 29% 30.24 in 10.0 mi NNW 29.9 mph 46.0 mph N/A   Clear
2:35 PM 59.0 °F - 26.6 °F 29% 30.24 in 10.0 mi North 27.6 mph 40.3 mph N/A   Clear
2:55 PM 60.8 °F - 26.6 °F 27% 30.23 in 10.0 mi North 34.5 mph 40.3 mph N/A   Clear
3:15 PM 60.8 °F - 26.6 °F 27% 30.22 in 10.0 mi North 32.2 mph 39.1 mph N/A   Clear
3:35 PM 60.8 °F - 26.6 °F 27% 30.22 in 10.0 mi North 32.2 mph 41.4 mph N/A   Clear
3:55 PM 60.8 °F - 26.6 °F 27% 30.22 in 10.0 mi North 28.8 mph 39.1 mph N/A   Clear
4:15 PM 60.8 °F - 26.6 °F 27% 30.22 in 10.0 mi NNW 28.8 mph 39.1 mph N/A   Clear
4:35 PM 60.8 °F - 26.6 °F 27% 30.22 in 10.0 mi North 32.2 mph 39.1 mph N/A   Clear
4:55 PM 60.8 °F - 24.8 °F 25% 30.23 in 10.0 mi North 29.9 mph 36.8 mph N/A   Clear
5:15 PM 59.0 °F - 24.8 °F 27% 30.23 in 10.0 mi NNW 25.3 mph 39.1 mph N/A   Clear
5:35 PM 59.0 °F - 24.8 °F 27% 30.23 in 10.0 mi NNW 28.8 mph 39.1 mph N/A   Clear
5:55 PM 57.2 °F - 24.8 °F 29% 30.23 in 10.0 mi North 26.5 mph 32.2 mph N/A   Clear
6:15 PM 57.2 °F - 23.0 °F 27% 30.23 in 10.0 mi NNW 20.7 mph 29.9 mph N/A   Clear
6:35 PM 55.4 °F - 23.0 °F 29% 30.23 in 10.0 mi North 21.9 mph 28.8 mph N/A   Clear
6:55 PM 55.4 °F - 21.2 °F 26% 30.23 in 10.0 mi North 16.1 mph - N/A   Clear
7:15 PM 53.6 °F - 21.2 °F 28% 30.24 in 10.0 mi North 15.0 mph - N/A   Clear
7:35 PM 50.0 °F - 21.2 °F 32% 30.24 in 10.0 mi North 11.5 mph - N/A   Clear
7:55 PM 48.2 °F - 21.2 °F 34% 30.24 in 10.0 mi North 10.4 mph - N/A   Clear
8:15 PM 46.4 °F 42.4 °F 21.2 °F 37% 30.24 in 10.0 mi North 8.1 mph - N/A   Clear
8:35 PM 44.6 °F 41.4 °F 21.2 °F 39% 30.24 in 10.0 mi NNW 5.8 mph - N/A   Clear
8:55 PM 41.0 °F 38.0 °F 19.4 °F 42% 30.25 in 10.0 mi NW 4.6 mph - N/A   Clear
9:15 PM 39.2 °F 34.2 °F 19.4 °F 45% 30.24 in 10.0 mi NNW 6.9 mph - N/A   Clear
9:35 PM 39.2 °F 34.2 °F 21.2 °F 49% 30.24 in 10.0 mi NW 6.9 mph - N/A   Clear
9:55 PM 39.2 °F 33.0 °F 21.2 °F 49% 30.24 in 10.0 mi NW 9.2 mph - N/A   Clear
10:15 PM 37.4 °F 31.4 °F 21.2 °F 52% 30.24 in 10.0 mi NW 8.1 mph - N/A   Clear
10:35 PM 37.4 °F 30.8 °F 19.4 °F 48% 30.24 in 10.0 mi WNW 9.2 mph - N/A   Clear
10:55 PM 37.4 °F 30.8 °F 19.4 °F 48% 30.24 in 10.0 mi West 9.2 mph - N/A   Clear
11:15 PM 37.4 °F 30.3 °F 21.2 °F 52% 30.24 in 10.0 mi WNW 10.4 mph - N/A   Clear
11:35 PM 35.6 °F 28.6 °F 21.2 °F 56% 30.24 in 10.0 mi West 9.2 mph - N/A   Clear
11:55 PM 37.4 °F 30.3 °F 21.2 °F 52% 30.23 in 10.0 mi West 10.4 mph - N/A   Clear